This is the latest recevied weather packets stored in our database for station/object DG1JLA-3. If no packets are shown the sender has not sent any weather packets the latest 10 day(s).
| Time | Temp. | Humidity | Pressure | Rain* | Wind** | Luminosity | Snow |
|---|---|---|---|---|---|---|---|
| 1777701602 | 10.56° C | 66% | 1027.2 hPa | 0 mm | - | - | - |
| 1777701302 | 10.56° C | 67% | 1027.3 hPa | 0 mm | - | - | - |
| 1777701002 | 10.56° C | 68% | 1027.3 hPa | 0 mm | - | - | - |
| 1777700702 | 10° C | 69% | 1027.3 hPa | 0 mm | - | - | - |
| 1777700402 | 9.44° C | 71% | 1027.3 hPa | 0 mm | - | - | - |
| 1777700102 | 8.33° C | 74% | 1027.2 hPa | 0 mm | - | - | - |
| 1777699802 | 7.78° C | 74% | 1027.4 hPa | 0 mm | - | - | - |
| 1777699502 | 7.78° C | 75% | 1027.3 hPa | 0 mm | - | - | - |
| 1777699202 | 7.22° C | 76% | 1027.3 hPa | 0 mm | - | - | - |
| 1777698902 | 7.22° C | 76% | 1027.3 hPa | 0 mm | - | - | - |
| 1777698602 | 6.67° C | 76% | 1027.4 hPa | 0 mm | - | - | - |
| 1777698302 | 6.67° C | 76% | 1027.3 hPa | 0 mm | - | - | - |
| 1777698002 | 6.67° C | 76% | 1027.4 hPa | 0 mm | - | - | - |
| 1777697702 | 6.67° C | 76% | 1027.3 hPa | 0 mm | - | - | - |
| 1777697402 | 6.67° C | 76% | 1027.3 hPa | 0 mm | - | - | - |
| 1777697102 | 6.67° C | 76% | 1027.3 hPa | 0 mm | - | - | - |
| 1777696802 | 6.67° C | 76% | 1027.3 hPa | 0 mm | - | - | - |
| 1777696502 | 6.67° C | 75% | 1027.3 hPa | 0 mm | - | - | - |
| 1777696202 | 6.67° C | 75% | 1027.3 hPa | 0 mm | - | - | - |
| 1777695902 | 6.67° C | 77% | 1027.4 hPa | 0 mm | - | - | - |
| 1777695602 | 6.11° C | 78% | 1027.3 hPa | 0 mm | - | - | - |
| 1777695303 | 5.56° C | 79% | 1027.3 hPa | 0 mm | - | - | - |
| 1777695003 | 5.56° C | 79% | 1027.4 hPa | 0 mm | - | - | - |
| 1777694703 | 5° C | 81% | 1027.4 hPa | 0 mm | - | - | - |
| 1777694403 | 5° C | 81% | 1027.4 hPa | 0 mm | - | - | - |
* Rain latest hour (hover to see other rain measurements)
** Current wind speed in m/s (hover to see current wind gust speed)